Regional Weather Roundup
Issued by NWS Little Rock, AR

Home | Current Version | Previous Version | Graphics & Text | Print | Product List | Glossary On
Versions: 1 2 3 4 5 6 7 8 9 10 11 12 13 14 15 16 17 18 19 20 21 22 23 24 25 26 27 28 29 30 31 32 33 34 35 36 37 38 39 40 41 42 43 44 45 46 47 48 49 50
000
ASUS44 KLZK 252305
RWRLZK

WEATHER ROUNDUP FOR ARKANSAS
NATIONAL WEATHER SERVICE LITTLE ROCK AR
500 PM CST TUE NOV 25 2014

NOTE: "FAIR" INDICATES FEW OR NO CLOUDS BELOW 12,000 FEET WITH NO
SIGNIFICANT WEATHER AND/OR OBSTRUCTIONS TO VISIBILITY.

ARZ001-003-010-029-260000-
NORTHWEST ARKANSAS

CITY           SKY/WX    TMP DP  RH WIND       PRES   REMARKS
FAYETTEVILLE   CLEAR     43  21  41 W3        30.15S
FORT SMITH     CLEAR     47  23  38 W9        30.16S
HARRISON       CLEAR     43  19  38 NW5       30.13S
BENTONVILLE    PTCLDY    45  19  36 W3        30.15S
ROGERS         PTCLDY    43  22  43 W5        30.14F
SILOAM SPGS    CLEAR     43  19  39 NW3       30.16S
HIGHFILL       PTCLDY    42  24  49 W6        30.14S
SPRINGDALE     CLEAR     45  21  39 W9        30.16S
$$

ARZ004-005-016-260000-
NORTH CENTRAL ARKANSAS

CITY           SKY/WX    TMP DP  RH WIND       PRES   REMARKS
BATESVILLE     CLEAR     46  18  31 N3        30.16S
FLIPPIN        CLEAR     45  18  33 N3        30.15F
MTN HOME       CLEAR     43  17  35 CALM      30.14S
$$

ARZ040-041-260000-
WEST CENTRAL ARKANSAS

CITY           SKY/WX    TMP DP  RH WIND       PRES   REMARKS
MENA           CLEAR     52  27  37 CALM      30.14S
MOUNT IDA      CLEAR     49  28  44 CALM      30.13S
$$

ARZ009-017-025-026-028-260000-
NORTHEAST ARKANSAS

CITY           SKY/WX    TMP DP  RH WIND       PRES   REMARKS
CORNING        FAIR      41  28  60 SE6       30.17R
JONESBORO      CLEAR     43  28  55 CALM      30.17R
NEWPORT        CLEAR     46  35  65 NE3       30.19R
WALNUT RIDGE   CLEAR     43  27  52 E7        30.16R
BLYTHEVILLE    MOCLDY    52  33  48 NW5       30.18S
$$

ARZ022-023-033-042-044-260000-
CENTRAL ARKANSAS

CITY           SKY/WX    TMP DP  RH WIND       PRES   REMARKS
LITTLE ROCK    PTCLDY    50  17  27 NW3       30.17S
N LITTLE ROCK  PTCLDY    48  24  37 CALM      30.17S
JACKSONVILLE   CLEAR     48  22  35 W1        30.16S
SEARCY         CLEAR     47  21  35 CALM      30.18R
HOT SPRINGS    CLEAR     52  24  33 CALM      30.16S
RUSSELLVILLE   CLEAR     47  24  40 CALM      30.16R
CLINTON        FAIR      46  25  42 W3        30.17R
$$

ARZ036-260000-
EAST ARKANSAS

CITY           SKY/WX    TMP DP  RH WIND       PRES   REMARKS
WEST MEMPHIS   MOCLDY    43  30  60 CALM      30.17S
$$

ARZ050-053-066-070-073-260000-
SOUTHWEST ARKANSAS

CITY           SKY/WX    TMP DP  RH WIND       PRES   REMARKS
ARKADELPHIA    FAIR      54  33  44 CALM      30.18R
CAMDEN         CLEAR     54  27  35 CALM      30.19R
TEXARKANA      CLEAR     53  31  42 SE3       30.16S
EL DORADO      CLEAR     48  34  58 CALM      30.19R
DE QUEEN       CLEAR     54  26  34 SW5       30.14S
$$

ARZ056-057-069-260000-
SOUTHEAST ARKANSAS

CITY           SKY/WX    TMP DP  RH WIND       PRES   REMARKS
PINE BLUFF     CLEAR     47  32  56 SE6       30.19R
STUTTGART      CLEAR     48  28  46 SE7       30.18S
MONTICELLO     PTCLDY    49  31  49 CALM      30.19R

$$





USA.gov is the U.S. government's official web portal to all federal, state and local government web resources and services.